Content
SEND FEEDBACK

Daily
Averages
Monthly
Summary
Canada

YELLOWKNIFE, NORTHWEST TERRITORIES


Home > North America > Canada > Northwest Territories
Elevation: 676 feet     Latitude: 62 28N     Longitude: 114 27W

WEATHER
 
SELECT A DAY
Number of Records: 190,601;   Date Range: 1/1/95 - 7/23/14
 
SHARE

PRINT THIS DATA

[ ← Previous Day ]
WEATHER ALMANAC - MARCH 16, 2013
[ Next Day → ]
[ °C ]   °F
Weather ElementAverageHighLow
Temperature-16 °F-2.2 °F (4:00 pm)-29.2 °F (1:00 am)
Dewpoint-25.5 °F-16 °F (6:00 pm)-38.2 °F (1:00 am)
Humidity61.3 %77 % (9:00 pm)36 % (6:00 pm)
Barometer30.36 in30.59 in (12:00 am)30.15 in (11:00 pm)
Wind Speed5.5 mph9.2 mph (3:00 pm)
Weather ElementAverage
Visibility15 mi
Wind DirectionWSW (251.5 °)

Weather ElementTotal
Precipitation---
Heating Degree Days80.7 (Base 65)
Averaged from 26 records on March 16, 2013
WEATHER CONDITIONS BREAKOUT
WIND DIRECTION BREAKOUT
WEATHER BY HOUR - MARCH 16, 2013
[ °C ]   °F
Local TimeTemperatureDewpointHumidityBarometerVisibilityWind DirectionWind SpeedGust SpeedPrecipitationEventsConditions
12:00 AM-27.4 °F-34.6 °F69 %30.59 in15.0 miNW (310°)3.5 mphClear
1:00 AM-29.2 °F-38.2 °F62 %30.58 in15.0 miNW (320°)3.5 mphClear
2:00 AM-27.4 °F-36.4 °F62 %30.56 in15.0 miNW (320°)3.5 mphClear
3:00 AM-27.4 °F-36.4 °F62 %30.54 in15.0 miWSW (250°)3.5 mphClear
4:00 AM-27.4 °F-34.6 °F69 %30.52 in15.0 miWSW (250°)4.6 mphPartly Cloudy
5:00 AM-25.6 °F-31.0 °F76 %30.49 in15.0 miWest (260°)6.9 mphClear
6:00 AM-27.4 °F-32.8 °F75 %30.47 in15.0 miWNW (290°)4.6 mphClear
6:00 AM-28.0 °F-34.0 °F59 %30.47 in15.0 miWNW (290°)3.5 mph
7:00 AM-27.4 °F-34.6 °F69 %30.45 in15.0 miWNW (290°)2.3 mphPartly Cloudy
8:00 AM-27.4 °F-36.4 °F62 %30.42 in15.0 miCalmPartly Cloudy
9:00 AM-23.8 °F-29.2 °F76 %30.40 in15.0 miWSW (240°)4.6 mphPartly Cloudy
10:00 AM-20.2 °F-25.6 °F76 %30.39 in15.0 miWSW (250°)4.6 mphPartly Cloudy
11:00 AM-13.0 °F-22.0 °F64 %30.37 in15.0 miWest (280°)6.9 mphScattered Clouds
12:00 PM-7.6 °F-20.2 °F54 %30.34 in15.0 miWNW (290°)8.1 mphPartly Cloudy
12:00 PM-8.0 °F-20.0 °F38 %30.35 in15.0 miWNW (290°)8.1 mphClear
2:00 PM-4.0 °F-18.4 °F50 %30.29 in15.0 miWSW (240°)6.9 mphPartly Cloudy
3:00 PM-4.0 °F-18.4 °F50 %30.27 in15.0 miWest (270°)9.2 mphPartly Cloudy
4:00 PM-2.2 °F-18.4 °F46 %30.25 in15.0 miWest (260°)8.1 mphPartly Cloudy
5:00 PM-2.2 °F-18.4 °F46 %30.23 in15.0 miWest (260°)9.2 mphPartly Cloudy
6:00 PM-2.2 °F-16.6 °F50 %30.22 in15.0 miSW (220°)5.8 mphPartly Cloudy
6:00 PM-3.0 °F-16.0 °F36 %30.22 in15.0 miSW (220°)5.8 mphClear
7:00 PM-5.8 °F-18.4 °F55 %30.21 in15.0 miSSW (200°)5.8 mphPartly Cloudy
8:00 PM-9.4 °F-18.4 °F65 %30.20 in15.0 miSSW (210°)5.8 mphPartly Cloudy
9:00 PM-13.0 °F-18.4 °F77 %30.19 in15.0 miSW (220°)5.8 mphPartly Cloudy
10:00 PM-11.2 °F-18.4 °F70 %30.17 in15.0 miWSW (240°)5.8 mphPartly Cloudy
11:00 PM-13.0 °F-18.4 °F77 %30.15 in15.0 miWest (270°)6.9 mphClear
Hourly data recorded from CYZF, located miles away from Yellowknife, Northwest Territories







STORIES FROM OUR PARTNERS